Location: Elmsmere
(40.9284°N, 73.8207°W)
Time: 22:02:47
(UTC+00:00)

N. Korean satellite - Pass Details

Date: 01 December 2022
Orbit: 407 x 442 km, 97.3° (Epoch: 04 February)

Event Time Altitude Azimuth Distance (km) Brightness Sun altitude
Rises 10:05:19 0° 14° (NNE) 2,523 10.2 -21.2°
Reaches altitude 10° 10:07:24 10° 17° (NNE) 1,637 9.3 -20.9°
Maximum altitude 10:10:54 68° 101° (E) 506 6.7 -20.2°
Drops below altitude 10° 10:14:20 10° 185° (S) 1,602 9.3 -19.6°
Sets 10:16:21 0° 188° (S) 2,462 10.2 -19.2°
